timestamp,surface_pressure_avg,surface_temp_avg,battery_voltage,lat,long
2018-09-18 00:00:00+00:00,241.0747,16.6,12.89,47.84626,-54.09684
2018-09-18 00:10:00+00:00,245.2747,16.6,12.81,47.84626,-54.09684
2018-09-18 00:20:00+00:00,247.5464,16.6,12.89,47.84626,-54.09684
2018-09-18 00:30:00+00:00,239.0431,16.58,12.89,47.84626,-54.09684
2018-09-18 00:40:00+00:00,233.9848,16.56,12.97,47.84626,-54.09684
2018-09-18 00:50:00+00:00,239.0514,16.57,12.97,47.84626,-54.09684
2018-09-18 01:00:00+00:00,238.0047,16.56,12.89,47.84626,-54.09684
2018-09-18 01:10:00+00:00,228.5865,16.5,12.81,47.84626,-54.09684
2018-09-18 01:20:00+00:00,232.7365,16.5,12.89,47.84626,-54.09684
2018-09-18 01:30:00+00:00,239.8681,16.5,12.89,47.84626,-54.09684
2018-09-18 01:40:00+00:00,239.4014,16.5,12.89,47.84626,-54.09684
2018-09-18 01:50:00+00:00,239.3248,16.5,12.89,47.84626,-54.09684
2018-09-18 02:00:00+00:00,239.7447,16.5,12.89,47.84626,-54.09684
2018-09-18 02:10:00+00:00,239.0947,16.48,12.81,47.84626,-54.09684
2018-09-18 02:20:00+00:00,246.5164,16.43,12.89,47.84626,-54.09684
2018-09-18 02:30:00+00:00,254.6531,16.43,12.89,47.84626,-54.09684
2018-09-18 02:40:00+00:00,253.2448,16.41,12.89,47.84626,-54.09684
2018-09-18 02:50:00+00:00,256.388,16.4,12.89,47.84626,-54.09684
2018-09-18 03:00:00+00:00,266.7947,16.4,12.89,47.84626,-54.09684
2018-09-18 03:10:00+00:00,267.7281,16.4,12.81,47.84626,-54.09684
2018-09-18 03:20:00+00:00,264.9431,16.39,12.89,47.84626,-54.09684
2018-09-18 03:30:00+00:00,272.1714,16.32,12.89,47.84626,-54.09684
2018-09-18 03:40:00+00:00,279.4481,16.3,12.89,47.84626,-54.09684
2018-09-18 03:50:00+00:00,277.3064,16.3,12.89,47.84626,-54.09684
2018-09-18 04:00:00+00:00,282.0431,16.3,12.81,47.84626,-54.09684
2018-09-18 04:10:00+00:00,293.803,16.3,12.81,47.84626,-54.09684
2018-09-18 04:20:00+00:00,290.9214,16.3,12.81,47.84626,-54.09684
2018-09-18 04:30:00+00:00,288.6763,16.29,12.89,47.84626,-54.09684
2018-09-18 04:40:00+00:00,298.548,16.3,12.89,47.84626,-54.09684
2018-09-18 04:50:00+00:00,302.753,16.3,12.89,47.84626,-54.09684
2018-09-18 05:00:00+00:00,298.228,16.3,12.81,47.84626,-54.09684
2018-09-18 05:10:00+00:00,303.898,16.3,12.81,47.84626,-54.09684
2018-09-18 05:20:00+00:00,312.618,16.3,12.81,47.84626,-54.09684
2018-09-18 05:30:00+00:00,309.1863,16.3,12.89,47.84626,-54.09684
2018-09-18 05:40:00+00:00,305.8314,16.3,12.89,47.84626,-54.09684
2018-09-18 05:50:00+00:00,317.3329,16.3,12.89,47.84626,-54.09684
2018-09-18 06:00:00+00:00,319.9414,16.3,12.81,47.84626,-54.09684
2018-09-18 06:10:00+00:00,315.2246,16.3,12.73,47.84626,-54.09684
2018-09-18 06:20:00+00:00,322.2247,16.3,12.81,47.84626,-54.09684
2018-09-18 06:30:00+00:00,328.2946,16.3,12.81,47.84626,-54.09684
2018-09-18 06:40:00+00:00,320.093,16.28,12.89,47.84626,-54.09684
2018-09-18 06:50:00+00:00,313.5914,16.29,12.89,47.84626,-54.09684
2018-09-18 07:00:00+00:00,319.0813,16.29,12.81,47.84626,-54.09684
2018-09-18 07:10:00+00:00,315.2863,16.28,12.73,47.84626,-54.09684
2018-09-18 07:20:00+00:00,311.9813,16.2,12.81,47.84626,-54.09684
2018-09-18 07:30:00+00:00,311.6797,16.2,12.81,47.84626,-54.09684
2018-09-18 07:40:00+00:00,311.2081,16.2,12.89,47.84626,-54.09684
2018-09-18 07:50:00+00:00,307.9998,16.2,12.89,47.84626,-54.09684
2018-09-18 08:00:00+00:00,308.4896,16.2,12.81,47.84626,-54.09684
2018-09-18 08:10:00+00:00,306.3897,16.19,12.73,47.84626,-54.09684
2018-09-18 08:20:00+00:00,295.6514,16.15,12.81,47.84626,-54.09684
2018-09-18 08:30:00+00:00,294.9763,16.1,12.81,47.84626,-54.09684
2018-09-18 08:40:00+00:00,291.688,16.1,12.89,47.84626,-54.09684
2018-09-18 08:50:00+00:00,283.018,16.1,12.89,47.84626,-54.09684
2018-09-18 09:00:00+00:00,273.298,16.1,12.81,47.84626,-54.09684
2018-09-18 09:10:00+00:00,271.218,16.1,12.73,47.84626,-54.09684
2018-09-18 09:20:00+00:00,267.3047,16.1,12.81,47.84626,-54.09684
2018-09-18 09:30:00+00:00,261.7081,16.1,12.81,47.84626,-54.09684
2018-09-18 09:40:00+00:00,261.6598,16.1,12.89,47.84626,-54.09684
2018-09-18 09:50:00+00:00,259.6797,16.1,12.89,47.84626,-54.09684
2018-09-18 10:00:00+00:00,254.4297,16.1,12.81,47.84626,-54.09684
2018-09-18 10:10:00+00:00,254.0131,16.1,12.73,47.84626,-54.09684
2018-09-18 10:20:00+00:00,259.2014,16.1,12.81,47.84626,-54.09684
2018-09-18 10:30:00+00:00,257.8647,16.1,12.81,47.84626,-54.09684
2018-09-18 10:40:00+00:00,249.2531,16.0,12.89,47.84626,-54.09684
2018-09-18 10:50:00+00:00,245.8514,15.9,12.89,47.84626,-54.09684
2018-09-18 11:00:00+00:00,251.8348,15.89,12.81,47.84626,-54.09684
2018-09-18 11:10:00+00:00,251.6264,15.9,12.73,47.84626,-54.09684
2018-09-18 11:20:00+00:00,250.6631,15.9,12.89,47.84626,-54.09684
2018-09-18 11:30:00+00:00,256.1348,15.89,12.89,47.84626,-54.09684
2018-09-18 11:40:00+00:00,256.2181,15.89,12.89,47.84626,-54.09684
2018-09-18 11:50:00+00:00,252.4131,15.87,12.89,47.84626,-54.09684
2018-09-18 12:00:00+00:00,255.9181,15.85,12.89,47.84626,-54.09684
2018-09-18 12:10:00+00:00,264.2264,15.87,12.81,47.84626,-54.09684
2018-09-18 12:20:00+00:00,266.1714,15.89,12.89,47.84626,-54.09684
2018-09-18 12:30:00+00:00,257.1681,15.83,12.89,47.84626,-54.09684
2018-09-18 12:40:00+00:00,254.2331,15.7,12.97,47.84626,-54.09684
2018-09-18 12:50:00+00:00,259.8365,15.7,12.97,47.84626,-54.09684
2018-09-18 13:00:00+00:00,259.288,15.77,12.97,47.84626,-54.09684
2018-09-18 13:10:00+00:00,251.9431,15.7,12.89,47.84626,-54.09684
2018-09-18 13:20:00+00:00,252.5414,15.7,12.97,47.84626,-54.09684
2018-09-18 13:30:00+00:00,258.1814,15.68,12.97,47.84626,-54.09684
2018-09-18 13:40:00+00:00,261.4597,15.6,12.97,47.84626,-54.09684
2018-09-18 13:50:00+00:00,261.6047,15.6,12.97,47.84626,-54.09684
2018-09-18 14:00:00+00:00,261.5931,15.5,12.97,47.84626,-54.09684
2018-09-18 14:10:00+00:00,261.5964,15.5,12.89,47.84626,-54.09684
2018-09-18 14:20:00+00:00,267.3714,15.5,12.97,47.84626,-54.09684
2018-09-18 14:30:00+00:00,269.4764,15.49,12.97,47.84626,-54.09684
2018-09-18 14:40:00+00:00,267.7214,15.4,12.97,47.84626,-54.09684
2018-09-18 14:50:00+00:00,266.5414,15.4,12.97,47.84626,-54.09684
2018-09-18 15:00:00+00:00,272.0714,15.4,12.97,47.84626,-54.09684
2018-09-18 15:10:00+00:00,281.0613,15.39,12.89,47.84626,-54.09684
2018-09-18 15:20:00+00:00,283.6063,15.3,12.97,47.84626,-54.09684
2018-09-18 15:30:00+00:00,284.1931,15.3,12.97,47.84626,-54.09684
2018-09-18 15:40:00+00:00,293.2297,15.3,12.97,47.84626,-54.09684
2018-09-18 15:50:00+00:00,303.8597,15.34,13.05,47.84626,-54.09684
2018-09-18 16:00:00+00:00,306.5213,15.36,13.13,47.84626,-54.09684
2018-09-18 16:10:00+00:00,301.708,15.3,13.05,47.84626,-54.09684
2018-09-18 16:20:00+00:00,308.7064,15.3,13.05,47.84626,-54.09684
2018-09-18 16:30:00+00:00,314.1364,15.3,13.05,47.84626,-54.09684
2018-09-18 16:40:00+00:00,315.873,15.3,13.05,47.84626,-54.09684
2018-09-18 16:50:00+00:00,311.9014,15.2,13.13,47.84626,-54.09684
2018-09-18 17:00:00+00:00,316.1246,15.1,13.05,47.84626,-54.09684
2018-09-18 17:10:00+00:00,323.7446,15.1,12.97,47.84626,-54.09684
2018-09-18 17:20:00+00:00,326.7063,15.1,13.05,47.84626,-54.09684
2018-09-18 17:30:00+00:00,325.5997,15.0,13.05,47.84626,-54.09684
2018-09-18 17:40:00+00:00,331.1879,15.0,13.13,47.84626,-54.09684
2018-09-18 17:50:00+00:00,330.6647,15.0,13.21,47.84626,-54.09684
2018-09-18 18:00:00+00:00,328.4396,15.0,13.05,47.84626,-54.09684
2018-09-18 18:10:00+00:00,325.4564,14.99,12.97,47.84626,-54.09684
2018-09-18 18:20:00+00:00,332.0897,14.99,13.05,47.84626,-54.09684
2018-09-18 18:30:00+00:00,331.5763,15.0,13.05,47.84626,-54.09684
2018-09-18 18:40:00+00:00,333.3563,15.0,13.05,47.84626,-54.09684
2018-09-18 18:50:00+00:00,333.1396,15.0,13.05,47.84626,-54.09684
2018-09-18 19:00:00+00:00,329.7797,15.0,13.05,47.84626,-54.09684
2018-09-18 19:10:00+00:00,327.063,15.09,12.97,47.84626,-54.09684
2018-09-18 19:20:00+00:00,326.243,15.1,13.05,47.84626,-54.09684
2018-09-18 19:30:00+00:00,331.4363,15.09,13.05,47.84626,-54.09684
2018-09-18 19:40:00+00:00,327.0997,15.09,13.13,47.84626,-54.09684
2018-09-18 19:50:00+00:00,321.8346,15.0,13.13,47.84626,-54.09684
2018-09-18 20:00:00+00:00,319.0714,15.0,13.05,47.84626,-54.09684
2018-09-18 20:10:00+00:00,315.2429,14.98,12.97,47.84626,-54.09684
2018-09-18 20:20:00+00:00,308.1247,14.9,12.97,47.84626,-54.09684
2018-09-18 20:30:00+00:00,305.2413,14.83,12.97,47.84626,-54.09684
2018-09-18 20:40:00+00:00,303.9697,14.9,12.97,47.84626,-54.09684
2018-09-18 20:50:00+00:00,299.9147,14.89,13.05,47.84626,-54.09684
2018-09-18 21:00:00+00:00,294.858,14.87,12.97,47.84626,-54.09684
2018-09-18 21:10:00+00:00,288.7463,15.0,12.81,47.84626,-54.09684
2018-09-18 21:20:00+00:00,285.5664,15.22,12.89,47.84626,-54.09684
2018-09-18 21:30:00+00:00,284.0647,15.47,12.89,47.84626,-54.09684
2018-09-18 21:40:00+00:00,276.6164,15.2,12.89,47.84626,-54.09684
2018-09-18 21:50:00+00:00,268.7813,14.7,12.89,47.84626,-54.09684
2018-09-18 22:00:00+00:00,266.6048,15.24,12.81,47.84626,-54.09684
2018-09-18 22:10:00+00:00,267.4798,15.41,12.73,47.84626,-54.09684
2018-09-18 22:20:00+00:00,266.8414,15.49,12.81,47.84626,-54.09684
2018-09-18 22:30:00+00:00,265.0247,15.25,12.81,47.84626,-54.09684
2018-09-18 22:40:00+00:00,267.5682,15.06,12.89,47.84626,-54.09684
2018-09-18 22:50:00+00:00,269.9397,15.1,12.89,47.84626,-54.09684
2018-09-18 23:00:00+00:00,264.6431,15.1,12.81,47.84626,-54.09684
2018-09-18 23:10:00+00:00,259.3097,14.86,12.73,47.84626,-54.09684
2018-09-18 23:20:00+00:00,258.5831,15.25,12.81,47.84626,-54.09684
2018-09-18 23:30:00+00:00,259.2481,15.34,12.81,47.84626,-54.09684
2018-09-18 23:40:00+00:00,249.1614,15.3,12.89,47.84626,-54.09684
2018-09-18 23:50:00+00:00,243.9698,14.7,12.89,47.84626,-54.09684
